Location: Ar Ranvel
(48.3000°N, 4.8833°W)
Time: 08:27:59
(UTC+00:00)

USA 238 - Pass Details

Date: 16 June 2021
Orbit: 989 x 1223 km, 63.4° (Epoch: 16 July)

Event Time Altitude Azimuth Distance (km) Brightness Sun altitude
Rises 21:43:49 0° 236° (WSW) 3,724 6.6 -10.2°
Reaches altitude 10° 21:46:25 10° 241° (WSW) 2,796 6.0 -10.5°
Maximum altitude 21:52:53 57° 319° (NW) 1,229 4.5 -11.1°
Drops below altitude 10° 21:59:44 10° 38° (NE) 2,956 6.3 -11.7°
Sets 22:02:34 0° 43° (NE) 3,953 6.9 -12.0°
